Hourly Weather Russkoe Burnashevo

Today, 15 April, Thursday

Time Temperature Precipitation Wind Pressure Humidity
00:00 +10°C° 0 mm 2 mps 761 mmHg 85%
01:00 +10°C° 0 mm 2 mps 761 mmHg 85%
02:00 +10°C° 0 mm 2 mps 761 mmHg 86%
03:00 +9°C° 0 mm 2 mps 761 mmHg 86%
04:00 +9°C° 0 mm 2 mps 761 mmHg 87%
05:00 +9°C° 0 mm 2 mps 760 mmHg 88%
06:00 +9°C° 0 mm 2 mps 760 mmHg 89%
07:00 +12°C° 0 mm 2 mps 760 mmHg 81%
08:00 +14°C° 0 mm 2 mps 760 mmHg 73%
09:00 +16°C° 0 mm 3 mps 760 mmHg 66%
10:00 +17°C° 0 mm 2 mps 759 mmHg 60%
11:00 +18°C° 0 mm 2 mps 759 mmHg 55%
12:00 +19°C° 0 mm 2 mps 759 mmHg 49%
13:00 +20°C° 0 mm 2 mps 759 mmHg 46%
14:00 +20°C° 0 mm 2 mps 759 mmHg 44%
15:00 +20°C° 0 mm 2 mps 758 mmHg 41%
16:00 +19°C° 0 mm 2 mps 758 mmHg 45%
17:00 +18°C° 0 mm 2 mps 758 mmHg 49%
18:00 +19°C° 0 mm 1 mps 758 mmHg 53%
19:00 +16°C° 0 mm 1 mps 758 mmHg 56%
20:00 +15°C° 0 mm 1 mps 758 mmHg 59%
21:00 +13°C° 0 mm 0 mps 758 mmHg 62%
22:00 +13°C° 0 mm 1 mps 758 mmHg 67%
23:00 +13°C° 0 mm 1 mps 759 mmHg 71%

Tomorrow, 16 April, Friday

Time Temperature Precipitation Wind Pressure Humidity
00:00 +12°C° 0 mm 2 mps 759 mmHg 76%
01:00 +10°C° 0 mm 3 mps 759 mmHg 82%
02:00 +9°C° 0 mm 3 mps 759 mmHg 88%
03:00 +7°C° 0 mm 4 mps 760 mmHg 94%
04:00 +7°C° 0 mm 4 mps 760 mmHg 92%
05:00 +8°C° 0 mm 5 mps 760 mmHg 90%
06:00 +8°C° 0 mm 5 mps 760 mmHg 89%
07:00 +8°C° 0 mm 5 mps 761 mmHg 85%
08:00 +9°C° 0 mm 5 mps 761 mmHg 82%
09:00 +9°C° 0 mm 5 mps 761 mmHg 78%
10:00 +10°C° 0 mm 5 mps 761 mmHg 73%
11:00 +13°C° 0 mm 5 mps 761 mmHg 67%
12:00 +14°C° 0 mm 5 mps 761 mmHg 62%
13:00 +14°C° 0 mm 5 mps 761 mmHg 61%
14:00 +14°C° 0 mm 6 mps 761 mmHg 60%
15:00 +14°C° 0 mm 6 mps 761 mmHg 59%
16:00 +13°C° 0 mm 6 mps 762 mmHg 61%
17:00 +11°C° 0 mm 6 mps 762 mmHg 62%
18:00 +10°C° 0 mm 6 mps 762 mmHg 63%
19:00 +9°C° 0 mm 5 mps 762 mmHg 65%
20:00 +8°C° 0 mm 5 mps 762 mmHg 67%
21:00 +7°C° 0 mm 4 mps 763 mmHg 69%
22:00 +7°C° 0 mm 4 mps 763 mmHg 71%
23:00 +6°C° 0 mm 4 mps 763 mmHg 73%

Day after tomorrow, 17 April, Saturday

Time Temperature Precipitation Wind Pressure Humidity
00:00 +5°C° 0 mm 4 mps 763 mmHg 75%
01:00 +5°C° 0 mm 4 mps 763 mmHg 76%
02:00 +4°C° 0 mm 4 mps 763 mmHg 77%
03:00 +4°C° 0 mm 4 mps 763 mmHg 78%
04:00 +4°C° 0 mm 4 mps 763 mmHg 75%
05:00 +4°C° 0 mm 4 mps 764 mmHg 73%
06:00 +4°C° 0 mm 4 mps 764 mmHg 70%
07:00 +5°C° 0 mm 5 mps 764 mmHg 63%
08:00 +7°C° 0 mm 5 mps 764 mmHg 56%
09:00 +8°C° 0 mm 5 mps 764 mmHg 49%
10:00 +9°C° 0 mm 5 mps 764 mmHg 44%
11:00 +10°C° 0 mm 6 mps 764 mmHg 39%
12:00 +11°C° 0 mm 6 mps 764 mmHg 34%
13:00 +11°C° 0 mm 6 mps 764 mmHg 33%
14:00 +12°C° 0 mm 5 mps 763 mmHg 33%
15:00 +13°C° 0 mm 5 mps 763 mmHg 32%
16:00 +12°C° 0 mm 5 mps 763 mmHg 37%
17:00 +11°C° 0 mm 4 mps 763 mmHg 41%
18:00 +10°C° 0 mm 4 mps 763 mmHg 46%
19:00 +9°C° 0 mm 3 mps 763 mmHg 50%
20:00 +8°C° 0 mm 3 mps 763 mmHg 55%
21:00 +5°C° 0 mm 3 mps 763 mmHg 60%
22:00 +5°C° 0 mm 3 mps 763 mmHg 63%
23:00 +4°C° 0 mm 3 mps 763 mmHg 67%

18 April, Sunday

Time Temperature Precipitation Wind Pressure Humidity
00:00 +4°C° 0 mm 3 mps 763 mmHg 70%
01:00 +3°C° 0 mm 3 mps 763 mmHg 71%
02:00 +4°C° 0 mm 2 mps 763 mmHg 72%
03:00 +3°C° 0 mm 2 mps 763 mmHg 74%
04:00 +3°C° 0 mm 2 mps 763 mmHg 74%
05:00 +3°C° 0 mm 2 mps 763 mmHg 74%
06:00 +4°C° 0 mm 2 mps 763 mmHg 74%
07:00 +4°C° 0 mm 3 mps 763 mmHg 66%
08:00 +7°C° 0 mm 3 mps 763 mmHg 59%
09:00 +8°C° 0 mm 4 mps 763 mmHg 52%
10:00 +10°C° 0 mm 4 mps 763 mmHg 49%
11:00 +10°C° 0 mm 5 mps 763 mmHg 46%
12:00 +12°C° 0 mm 5 mps 763 mmHg 43%
13:00 +10°C° 0 mm 6 mps 763 mmHg 46%
14:00 +10°C° 0 mm 7 mps 764 mmHg 50%
15:00 +9°C° 0 mm 8 mps 764 mmHg 54%
16:00 +8°C° 0 mm 7 mps 765 mmHg 53%
17:00 +7°C° 0 mm 6 mps 765 mmHg 53%
18:00 +5°C° 0 mm 6 mps 766 mmHg 52%
19:00 +5°C° 0 mm 5 mps 766 mmHg 51%
20:00 +3°C° 0 mm 5 mps 767 mmHg 50%
21:00 +3°C° 0 mm 4 mps 767 mmHg 48%
22:00 +1°C° 0 mm 4 mps 768 mmHg 51%
23:00 0°C° 0 mm 4 mps 768 mmHg 53%

19 April, Monday

Time Temperature Precipitation Wind Pressure Humidity
00:00 0°C° 0 mm 4 mps 769 mmHg 55%
01:00 -1°C° 0 mm 4 mps 769 mmHg 57%
02:00 -1°C° 0 mm 3 mps 770 mmHg 59%
03:00 -1°C° 0 mm 3 mps 770 mmHg 61%
04:00 -1°C° 0 mm 3 mps 771 mmHg 59%
05:00 -2°C° 0 mm 4 mps 771 mmHg 57%
06:00 -2°C° 0 mm 4 mps 772 mmHg 55%
07:00 -1°C° 0 mm 4 mps 772 mmHg 50%
08:00 +1°C° 0 mm 4 mps 772 mmHg 46%
09:00 +3°C° 0 mm 4 mps 772 mmHg 41%
10:00 +3°C° 0 mm 4 mps 772 mmHg 39%
11:00 +4°C° 0 mm 4 mps 772 mmHg 37%
12:00 +5°C° 0 mm 3 mps 772 mmHg 35%
13:00 +5°C° 0 mm 3 mps 772 mmHg 34%
14:00 +7°C° 0 mm 3 mps 772 mmHg 34%
15:00 +7°C° 0 mm 3 mps 772 mmHg 33%
16:00 +6°C° 0 mm 2 mps 772 mmHg 36%
17:00 +6°C° 0 mm 2 mps 772 mmHg 39%
18:00 +6°C° 0 mm 2 mps 772 mmHg 42%
19:00 +5°C° 0 mm 2 mps 772 mmHg 45%
20:00 +4°C° 0 mm 1 mps 772 mmHg 47%
21:00 +3°C° 0 mm 1 mps 772 mmHg 50%
22:00 +3°C° 0 mm 1 mps 773 mmHg 50%
23:00 +3°C° 0 mm 1 mps 773 mmHg 51%

20 April, Tuesday

Time Temperature Precipitation Wind Pressure Humidity
00:00 +2°C° 0 mm 1 mps 773 mmHg 51%
01:00 +2°C° 0 mm 1 mps 773 mmHg 51%
02:00 +2°C° 0 mm 1 mps 773 mmHg 52%
03:00 +2°C° 0 mm 1 mps 773 mmHg 52%
04:00 +2°C° 0 mm 1 mps 774 mmHg 51%
05:00 +2°C° 0 mm 1 mps 774 mmHg 50%
06:00 +3°C° 0 mm 1 mps 774 mmHg 49%
07:00 +4°C° 0 mm 1 mps 774 mmHg 44%
08:00 +5°C° 0 mm 2 mps 773 mmHg 39%
09:00 +6°C° 0 mm 2 mps 773 mmHg 34%
10:00 +7°C° 0 mm 3 mps 773 mmHg 33%
11:00 +7°C° 0 mm 3 mps 773 mmHg 32%
12:00 +8°C° 0 mm 3 mps 772 mmHg 31%
13:00 +8°C° 0 mm 3 mps 772 mmHg 30%
14:00 +8°C° 0 mm 4 mps 772 mmHg 30%
15:00 +8°C° 0 mm 4 mps 772 mmHg 29%
16:00 +8°C° 0 mm 3 mps 771 mmHg 33%
17:00 +8°C° 0 mm 3 mps 771 mmHg 37%
18:00 +7°C° 0 mm 3 mps 771 mmHg 41%
19:00 +6°C° 0 mm 2 mps 771 mmHg 44%
20:00 +5°C° 0 mm 2 mps 771 mmHg 47%
21:00 +4°C° 0 mm 2 mps 771 mmHg 50%
22:00 +3°C° 0 mm 2 mps 771 mmHg 51%
23:00 +3°C° 0 mm 2 mps 771 mmHg 53%
Show more